Mackinac Island, MI

7:56 PM EDT on August 22, 2017 (GMT -0400)
Mackinac Island

Weather History for KMCD - January, 2013

Change the Weather History Date:

Wednesday, January 16, 2013

  Actual Average Record
Temperature  
Mean Temperature 24 °F -  
Max Temperature 30 °F 21 °F 40 °F (1988)
Min Temperature 16 °F 10 °F -12 °F (1982)
Degree Days  
Heating Degree Days 42    
Moisture  
Dew Point 20 °F    
Average Humidity 77    
Maximum Humidity 92    
Minimum Humidity 62    
Precipitation  
Precipitation 0.00 in - - ()
Sea Level Pressure  
Sea Level Pressure 29.73 in    
Wind  
Wind Speed 15 mph (WSW)    
Max Wind Speed 24 mph    
Max Gust Speed 46 mph    
Visibility 8 miles    
Events Snow    
Averages and records for this station are not official NWS values.
T = Trace of Precipitation, MM = Missing Value Source: NWS Daily Summary

Daily Weather History Graph

Daily Weather History Graph

Search for Another Location

Airport or City:

Trip Planner

Search our weather history database for the weather conditions in past years. The results will help you decide how hot, cold, wet, or windy it might be!

Date:

Astronomy

Jan. 16, 2013 Rise Set
Actual Time 8:15 AM EST 5:22 PM EST
Civil Twilight 7:41 AM EST 5:55 PM EST
Nautical Twilight 7:05 AM EST 6:32 PM EST
Astronomical Twilight 6:29 AM EST 7:07 PM EST
Moon 10:31 AM EST (1/16) 11:34 PM EST (1/16)
Length of Visible Light 10h 13m
Length of Day
9h 06m
Waxing Crescent, 28% of the Moon is Illuminated
Jan 16
Waxing Crescent
Jan 18
First Quarter
Jan 26
Full
Feb 3
Last Quarter
Feb 10
New

Hourly Weather History & Observations

Time (EST) Temp. Windchill Dew Point Humidity Pressure Visibility Wind Dir Wind Speed Gust Speed Precip Events Conditions
12:15 AM 27.5 °F 18.6 °F 21.0 °F 77% 29.97 in 10.0 mi SSW 9.2 mph 18.4 mph N/A   Overcast
12:34 AM 27.5 °F 16.3 °F 20.7 °F 75% 29.96 in 10.0 mi SSW 13.8 mph 20.7 mph N/A   Overcast
1:15 AM 27.9 °F 19.1 °F 21.2 °F 76% 29.94 in 10.0 mi SSW 9.2 mph 17.3 mph N/A   Overcast
1:34 AM 27.5 °F 16.8 °F 21.0 °F 77% 29.93 in 10.0 mi SSW 12.7 mph 20.7 mph N/A   Overcast
1:55 AM 27.5 °F 17.4 °F 21.0 °F 77% 29.92 in 10.0 mi SSW 11.5 mph 20.7 mph N/A   Overcast
2:34 AM 27.5 °F 16.3 °F 21.0 °F 77% 29.91 in 10.0 mi SSW 13.8 mph 21.9 mph N/A   Overcast
2:55 AM 27.5 °F 15.0 °F 21.0 °F 77% 29.90 in 10.0 mi SSW 17.3 mph 24.2 mph N/A   Overcast
3:15 AM 27.5 °F 17.4 °F 21.2 °F 77% 29.88 in 10.0 mi SSW 11.5 mph 21.9 mph N/A   Overcast
3:34 AM 27.3 °F 16.6 °F 20.8 °F 77% 29.87 in 10.0 mi SSW 12.7 mph 20.7 mph N/A   Overcast
3:55 AM 27.3 °F 16.6 °F 20.8 °F 77% 29.86 in 10.0 mi SSW 12.7 mph 21.9 mph N/A   Overcast
4:15 AM 27.3 °F 17.1 °F 21.0 °F 77% 29.85 in 10.0 mi SSW 11.5 mph 20.7 mph N/A   Overcast
4:34 AM 27.3 °F 16.6 °F 21.0 °F 77% 29.83 in 10.0 mi SSW 12.7 mph 26.5 mph N/A   Overcast
4:55 AM 26.6 °F 16.2 °F 20.5 °F 78% 29.81 in 10.0 mi SSW 11.5 mph 19.6 mph N/A   Overcast
5:14 AM 25.7 °F 14.6 °F 19.9 °F 79% 29.80 in 10.0 mi South 12.7 mph 23.0 mph N/A   Overcast
5:34 AM 25.3 °F 13.1 °F 20.1 °F 81% 29.78 in 10.0 mi South 15.0 mph 21.9 mph N/A   Overcast
5:55 AM 25.5 °F 14.3 °F 19.9 °F 79% 29.77 in 10.0 mi SSW 12.7 mph 24.2 mph N/A   Overcast
6:14 AM 25.3 °F 14.1 °F 19.6 °F 79% 29.75 in 10.0 mi South 12.7 mph 24.2 mph N/A   Overcast
6:55 AM 24.8 °F 12.4 °F 19.2 °F 79% 29.73 in 10.0 mi South 15.0 mph 28.8 mph N/A   Overcast
7:35 AM 24.8 °F 11.9 °F 19.0 °F 79% 29.70 in 10.0 mi South 16.1 mph 27.6 mph N/A   Clear
7:55 AM 24.8 °F 12.9 °F 19.2 °F 79% 29.69 in 10.0 mi South 13.8 mph 24.2 mph N/A   Clear
8:14 AM 25.0 °F 12.6 °F 19.2 °F 79% 29.68 in 10.0 mi South 15.0 mph 26.5 mph N/A   Clear
8:35 AM 25.5 °F 13.3 °F 19.4 °F 78% 29.67 in 10.0 mi South 15.0 mph 26.5 mph N/A   Clear
8:55 AM 25.7 °F 13.5 °F 19.4 °F 77% 29.66 in 10.0 mi SSW 15.0 mph 26.5 mph N/A   Scattered Clouds
9:14 AM 27.0 °F 13.9 °F 19.4 °F 73% 29.65 in 10.0 mi SSW 18.4 mph 27.6 mph N/A   Mostly Cloudy
9:35 AM 27.3 °F 14.0 °F 19.0 °F 71% 29.64 in 7.0 mi SSW 19.6 mph 31.1 mph N/A   Scattered Clouds
9:55 AM 27.9 °F 14.7 °F 19.2 °F 70% 29.62 in 10.0 mi SSW 19.6 mph 31.1 mph N/A   Scattered Clouds
10:14 AM 28.0 °F 15.7 °F 19.2 °F 70% 29.61 in 10.0 mi SSW 17.3 mph 29.9 mph N/A   Overcast
10:35 AM 28.0 °F 14.6 °F 19.9 °F 72% 29.60 in 5.0 mi SSW 20.7 mph 29.9 mph N/A   Haze
10:55 AM 28.2 °F 15.9 °F 21.2 °F 75% 29.58 in 4.0 mi SSW 17.3 mph 26.5 mph N/A Snow Light Snow
11:14 AM 28.4 °F 15.8 °F 22.6 °F 79% 29.57 in 2.5 mi SSW 18.4 mph 27.6 mph N/A Snow Light Snow
11:35 AM 28.6 °F 15.6 °F 24.6 °F 85% 29.57 in 0.8 mi SW 19.6 mph 29.9 mph N/A Snow Light Snow
11:55 AM 28.8 °F 14.9 °F 26.1 °F 90% 29.56 in 0.5 mi SW 23.0 mph 35.7 mph N/A Snow Snow
12:14 PM 30.0 °F 16.9 °F 27.9 °F 92% 29.55 in 0.2 mi SW 21.9 mph 44.9 mph N/A Snow Snow
12:35 PM 30.0 °F 16.3 °F 28.0 °F 92% 29.55 in 0.2 mi WSW 24.2 mph 46.0 mph N/A Snow Snow
12:55 PM 29.3 °F 15.9 °F 27.1 °F 92% 29.55 in 0.5 mi WSW 21.9 mph 39.1 mph N/A Snow Snow
1:14 PM 28.9 °F 14.8 °F 26.2 °F 90% 29.55 in 0.8 mi West 24.2 mph 41.4 mph N/A Snow Light Snow
1:35 PM 28.4 °F 15.8 °F 24.6 °F 86% 29.55 in 4.0 mi West 18.4 mph 39.1 mph N/A   Overcast
1:55 PM 28.6 °F 16.4 °F 23.9 °F 83% 29.56 in 7.0 mi WSW 17.3 mph 34.5 mph N/A   Overcast
2:14 PM 28.9 °F 15.4 °F 23.4 °F 80% 29.56 in 7.0 mi West 21.9 mph 33.4 mph N/A   Overcast
2:55 PM 28.9 °F 16.1 °F 24.1 °F 82% 29.58 in 5.0 mi West 19.6 mph 28.8 mph N/A   Haze
3:14 PM 28.9 °F 18.6 °F 24.6 °F 84% 29.59 in 7.0 mi WSW 12.7 mph 26.5 mph N/A   Overcast
3:35 PM 29.3 °F 17.7 °F 24.6 °F 83% 29.59 in 10.0 mi West 16.1 mph 27.6 mph N/A   Overcast
3:54 PM 29.3 °F 17.3 °F 24.4 °F 82% 29.60 in 10.0 mi West 17.3 mph 28.8 mph N/A   Overcast
4:14 PM 29.8 °F 18.9 °F 24.8 °F 81% 29.60 in 10.0 mi West 15.0 mph 23.0 mph N/A   Overcast
4:35 PM 30.0 °F 19.1 °F 24.6 °F 80% 29.61 in 10.0 mi West 15.0 mph 21.9 mph N/A   Overcast
4:54 PM 30.2 °F 17.4 °F 24.3 °F 79% 29.63 in 10.0 mi West 20.7 mph 27.6 mph N/A   Overcast
5:15 PM 30.2 °F 18.1 °F 24.4 °F 79% 29.64 in 10.0 mi West 18.4 mph 26.5 mph N/A Snow Light Snow
5:34 PM 30.2 °F 18.5 °F 23.9 °F 77% 29.66 in 10.0 mi West 17.3 mph 24.2 mph N/A   Overcast
5:54 PM 30.2 °F 18.5 °F 23.7 °F 77% 29.67 in 10.0 mi West 17.3 mph 27.6 mph N/A   Overcast
6:15 PM 30.0 °F 19.1 °F 23.0 °F 75% 29.69 in 10.0 mi WNW 15.0 mph 25.3 mph N/A   Overcast
6:34 PM 29.5 °F 17.2 °F 22.8 °F 76% 29.70 in 10.0 mi WNW 18.4 mph 29.9 mph N/A Snow Light Snow
6:54 PM 28.4 °F 16.6 °F 22.1 °F 77% 29.70 in 3.0 mi WNW 16.1 mph 26.5 mph N/A Snow Light Snow
7:15 PM 28.0 °F 17.5 °F 19.4 °F 70% 29.72 in 7.0 mi NW 12.7 mph 28.8 mph N/A Snow Light Snow
7:34 PM 27.5 °F 15.0 °F 16.5 °F 63% 29.73 in 10.0 mi WNW 17.3 mph 28.8 mph N/A   Overcast
7:55 PM 26.1 °F 12.3 °F 19.4 °F 76% 29.75 in 10.0 mi NNW 19.6 mph 28.8 mph N/A   Overcast
8:15 PM 24.4 °F 9.5 °F 15.6 °F 69% 29.76 in 10.0 mi NNW 21.9 mph 29.9 mph N/A   Overcast
8:34 PM 23.9 °F 9.5 °F 15.3 °F 70% 29.78 in 10.0 mi NNW 19.6 mph 31.1 mph N/A   Overcast
8:55 PM 22.6 °F 8.7 °F 13.6 °F 68% 29.79 in 10.0 mi NNW 17.3 mph 32.2 mph N/A   Scattered Clouds
9:15 PM 21.7 °F 5.9 °F 12.7 °F 68% 29.81 in 10.0 mi NNW 21.9 mph 28.8 mph N/A   Scattered Clouds
9:34 PM 20.8 °F 5.5 °F 11.8 °F 68% 29.82 in 10.0 mi NNW 19.6 mph 28.8 mph N/A   Scattered Clouds
9:55 PM 20.3 °F 4.8 °F 10.4 °F 66% 29.83 in 10.0 mi NW 19.6 mph 29.9 mph N/A   Scattered Clouds
10:15 PM 19.8 °F 5.9 °F 9.7 °F 65% 29.86 in 10.0 mi NNW 15.0 mph 26.5 mph N/A   Clear
10:34 PM 19.0 °F 3.6 °F 8.1 °F 62% 29.88 in 10.0 mi NNW 18.4 mph 26.5 mph N/A   Scattered Clouds
10:55 PM 18.5 °F 3.8 °F 7.7 °F 63% 29.90 in 10.0 mi NNW 16.1 mph 27.6 mph N/A   Scattered Clouds
11:15 PM 18.0 °F 4.2 °F 7.7 °F 64% 29.91 in 10.0 mi NNW 13.8 mph 25.3 mph N/A   Overcast
11:34 PM 17.6 °F 5.0 °F 9.1 °F 69% 29.92 in 10.0 mi NNW 11.5 mph 23.0 mph N/A   Overcast
11:55 PM 16.5 °F 3.6 °F 7.9 °F 69% 29.94 in 10.0 mi NNW 11.5 mph 20.7 mph N/A   Overcast